Time,TemperatureF,DewpointF,PressureIn,WindDirection,WindDirectionDegrees,WindSpeedMPH,WindSpeedGustMPH,Humidity,HourlyPrecipIn,Conditions,Clouds,dailyrainin,SoftwareType,DateUTC
2013-03-31 08:50:00,38.0,31.4,30.04,SSE,158,0.0,3.0,77,0.00,,---,0.00,VWS V14.01,2013-03-31 14:50:00,
2013-03-31 09:05:00,38.2,31.3,30.04,SSE,165,1.0,1.0,76,0.00,,---,0.00,VWS V14.01,2013-03-31 15:05:00,
2013-03-31 09:10:00,38.3,31.7,30.01,SSE,165,0.0,2.0,77,0.00,,---,0.00,VWS V14.01,2013-03-31 15:10:00,
2013-03-31 09:15:00,38.7,31.8,30.00,SSE,165,0.0,2.0,76,0.00,,---,0.00,VWS V14.01,2013-03-31 15:15:00,
2013-03-31 09:20:00,39.3,31.7,29.99,SSE,164,0.0,0.0,74,0.00,,---,0.00,VWS V14.01,2013-03-31 15:20:00,
2013-03-31 09:25:00,39.8,31.9,30.00,SSE,164,2.0,4.0,73,0.00,,---,0.00,VWS V14.01,2013-03-31 15:25:00,
2013-03-31 09:30:00,39.7,31.8,29.99,SSE,165,1.0,3.0,73,0.00,,---,0.00,VWS V14.01,2013-03-31 15:30:00,
2013-03-31 09:35:00,39.6,31.7,29.99,SSE,164,2.0,4.0,73,0.00,,---,0.00,VWS V14.01,2013-03-31 15:35:00,
2013-03-31 09:40:00,40.3,32.0,29.99,SSE,165,3.0,4.0,72,0.00,,---,0.00,VWS V14.01,2013-03-31 15:40:00,
2013-03-31 09:45:00,41.1,32.1,29.97,SSE,165,0.0,1.0,70,0.00,,---,0.00,VWS V14.01,2013-03-31 15:45:00,
2013-03-31 09:51:00,42.7,32.5,29.97,SSE,165,0.0,1.0,67,0.00,,---,0.00,VWS V14.01,2013-03-31 15:51:00,
2013-03-31 09:56:00,43.6,32.6,29.95,SSE,165,0.0,1.0,65,0.00,,---,0.00,VWS V14.01,2013-03-31 15:56:00,
2013-03-31 10:01:00,44.2,32.0,29.95,SSE,165,0.0,2.0,62,0.00,,---,0.00,VWS V14.01,2013-03-31 16:01:00,
2013-03-31 10:06:00,43.9,31.3,29.95,SSE,164,0.0,4.0,61,0.00,,---,0.00,VWS V14.01,2013-03-31 16:06:00,
2013-03-31 10:11:00,44.1,31.5,29.97,SSE,164,0.0,2.0,61,0.00,,---,0.00,VWS V14.01,2013-03-31 16:11:00,
2013-03-31 10:16:00,44.5,31.1,29.95,SSE,165,0.0,2.0,59,0.00,,---,0.00,VWS V14.01,2013-03-31 16:16:00,
2013-03-31 10:21:00,44.6,31.2,29.95,SSE,165,0.0,4.0,59,0.00,,---,0.00,VWS V14.01,2013-03-31 16:21:00,
2013-03-31 10:26:00,44.6,31.2,29.95,SSE,165,5.0,5.0,59,0.00,,---,0.00,VWS V14.01,2013-03-31 16:26:00,
2013-03-31 10:31:00,45.0,30.7,29.94,SSE,164,0.0,2.0,57,0.00,,---,0.00,VWS V14.01,2013-03-31 16:31:00,
2013-03-31 10:36:00,45.5,30.3,29.94,SSE,164,0.0,4.0,55,0.00,,---,0.00,VWS V14.01,2013-03-31 16:36:00,
2013-03-31 10:41:00,45.8,31.0,29.94,SSE,165,5.0,5.0,56,0.00,,---,0.00,VWS V14.01,2013-03-31 16:41:00,
2013-03-31 10:46:00,45.5,30.3,29.94,SSE,164,1.0,5.0,55,0.00,,---,0.00,VWS V14.01,2013-03-31 16:46:00,
2013-03-31 10:51:00,45.8,30.6,29.93,SSE,165,0.0,2.0,55,0.00,,---,0.00,VWS V14.01,2013-03-31 16:51:00,
2013-03-31 10:56:00,47.1,31.3,29.92,SSE,165,1.0,2.0,54,0.00,,---,0.00,VWS V14.01,2013-03-31 16:56:00,
2013-03-31 11:01:00,48.4,31.1,29.92,SSE,165,2.0,5.0,51,0.00,,---,0.00,VWS V14.01,2013-03-31 17:01:00,
2013-03-31 11:06:00,49.4,30.5,29.90,SSE,164,0.0,1.0,48,0.00,,---,0.00,VWS V14.01,2013-03-31 17:06:00,
2013-03-31 11:11:00,50.5,30.0,29.91,SSE,165,0.0,1.0,45,0.00,,---,0.00,VWS V14.01,2013-03-31 17:11:00,
2013-03-31 11:16:00,51.2,28.3,29.92,SSE,164,0.0,4.0,41,0.00,,---,0.00,VWS V14.01,2013-03-31 17:16:00,
2013-03-31 11:21:00,51.4,27.9,29.92,SSE,164,5.0,5.0,40,0.00,,---,0.00,VWS V14.01,2013-03-31 17:21:00,
2013-03-31 11:26:00,51.2,26.5,29.92,SSE,165,3.0,5.0,38,0.00,,---,0.00,VWS V14.01,2013-03-31 17:26:00,
2013-03-31 11:31:00,51.1,25.1,29.91,SSE,165,0.0,1.0,36,0.00,,---,0.00,VWS V14.01,2013-03-31 17:31:00,
2013-03-31 11:36:00,51.5,25.5,29.90,SSE,165,0.0,2.0,36,0.00,,---,0.00,VWS V14.01,2013-03-31 17:36:00,
2013-03-31 11:41:00,51.9,25.8,29.90,SSE,165,2.0,6.0,36,0.00,,---,0.00,VWS V14.01,2013-03-31 17:41:00,
2013-03-31 11:46:00,52.5,24.2,29.90,SSE,165,0.0,4.0,33,0.00,,---,0.00,VWS V14.01,2013-03-31 17:46:00,
2013-03-31 11:51:00,53.0,24.0,29.90,SSE,165,0.0,9.0,32,0.00,,---,0.00,VWS V14.01,2013-03-31 17:51:00,
2013-03-31 11:56:00,53.9,24.7,29.88,SSE,165,6.0,6.0,32,0.00,,---,0.00,VWS V14.01,2013-03-31 17:56:00,
2013-03-31 12:01:00,53.2,24.1,29.90,SSE,165,0.0,4.0,32,0.00,,---,0.00,VWS V14.01,2013-03-31 18:01:00,
2013-03-31 12:06:00,53.7,23.8,29.88,SSE,165,1.0,5.0,31,0.00,,---,0.00,VWS V14.01,2013-03-31 18:06:00,
2013-03-31 12:11:00,54.3,24.3,29.89,SSE,165,0.0,7.0,31,0.00,,---,0.00,VWS V14.01,2013-03-31 18:11:00,
2013-03-31 12:16:00,54.9,23.3,29.88,SSE,165,2.0,5.0,29,0.00,,---,0.00,VWS V14.01,2013-03-31 18:16:00,
2013-03-31 12:21:00,54.8,23.2,29.87,SSW,200,0.0,10.0,29,0.00,,---,0.00,VWS V14.01,2013-03-31 18:21:00,
2013-03-31 12:26:00,54.5,22.1,29.87,SSW,201,3.0,8.0,28,0.00,,---,0.00,VWS V14.01,2013-03-31 18:26:00,
2013-03-31 12:31:00,54.8,23.2,29.87,SSW,200,4.0,6.0,29,0.00,,---,0.00,VWS V14.01,2013-03-31 18:31:00,
2013-03-31 12:36:00,55.4,22.9,29.87,SSW,207,1.0,10.0,28,0.00,,---,0.00,VWS V14.01,2013-03-31 18:36:00,
2013-03-31 12:41:00,56.3,22.8,29.87,SSW,207,4.0,4.0,27,0.00,,---,0.00,VWS V14.01,2013-03-31 18:41:00,
2013-03-31 12:46:00,56.9,22.4,29.85,SSW,207,4.0,8.0,26,0.00,,---,0.00,VWS V14.01,2013-03-31 18:46:00,
2013-03-31 12:51:00,56.8,22.3,29.85,SSW,208,0.0,8.0,26,0.00,,---,0.00,VWS V14.01,2013-03-31 18:51:00,
2013-03-31 12:56:00,57.1,21.6,29.85,SSW,208,0.0,7.0,25,0.00,,---,0.00,VWS V14.01,2013-03-31 18:56:00,
2013-03-31 13:01:00,57.1,21.6,29.85,SSW,209,0.0,8.0,25,0.00,,---,0.00,VWS V14.01,2013-03-31 19:01:00,
2013-03-31 13:06:00,56.7,21.3,29.85,SSW,209,0.0,7.0,25,0.00,,---,0.00,VWS V14.01,2013-03-31 19:06:00,
2013-03-31 13:11:00,56.3,21.0,29.86,SSW,209,0.0,6.0,25,0.00,,---,0.00,VWS V14.01,2013-03-31 19:11:00,
2013-03-31 13:16:00,56.9,21.5,29.85,SSW,209,1.0,4.0,25,0.00,,---,0.00,VWS V14.01,2013-03-31 19:16:00,
2013-03-31 13:21:00,57.5,22.0,29.85,SSW,209,1.0,4.0,25,0.00,,---,0.00,VWS V14.01,2013-03-31 19:21:00,
2013-03-31 13:26:00,58.0,21.4,29.83,SSW,209,0.0,5.0,24,0.00,,---,0.00,VWS V14.01,2013-03-31 19:26:00,
2013-03-31 13:31:00,58.9,21.2,29.83,SSW,210,0.0,10.0,23,0.00,,---,0.00,VWS V14.01,2013-03-31 19:31:00,
2013-03-31 13:36:00,58.3,19.6,29.84,WNW,286,5.0,14.0,22,0.00,,---,0.00,VWS V14.01,2013-03-31 19:36:00,
2013-03-31 13:41:00,57.6,19.1,29.83,WNW,286,6.0,12.0,22,0.00,,---,0.00,VWS V14.01,2013-03-31 19:41:00,
2013-03-31 13:46:00,58.1,19.5,29.83,West,259,7.0,14.0,22,0.00,,---,0.00,VWS V14.01,2013-03-31 19:46:00,
2013-03-31 13:51:00,58.1,19.5,29.83,West,261,7.0,11.0,22,0.00,,---,0.00,VWS V14.01,2013-03-31 19:51:00,
2013-03-31 13:56:00,58.8,19.0,29.83,West,261,3.0,10.0,21,0.00,,---,0.00,VWS V14.01,2013-03-31 19:56:00,
2013-03-31 14:01:00,58.7,18.9,29.83,West,261,7.0,14.0,21,0.00,,---,0.00,VWS V14.01,2013-03-31 20:01:00,
2013-03-31 14:07:00,58.3,18.6,29.82,WSW,238,7.0,12.0,21,0.00,,---,0.00,VWS V14.01,2013-03-31 20:07:00,
2013-03-31 14:11:00,58.5,18.7,29.84,WSW,238,6.0,14.0,21,0.00,,---,0.00,VWS V14.01,2013-03-31 20:11:00,
2013-03-31 14:17:00,59.0,18.0,29.82,WSW,239,3.0,9.0,20,0.00,,---,0.00,VWS V14.01,2013-03-31 20:17:00,
2013-03-31 14:22:00,59.4,18.3,29.82,WSW,239,4.0,9.0,20,0.00,,---,0.00,VWS V14.01,2013-03-31 20:22:00,
2013-03-31 14:27:00,59.3,18.3,29.82,WSW,244,6.0,14.0,20,0.00,,---,0.00,VWS V14.01,2013-03-31 20:27:00,
2013-03-31 14:32:00,59.3,18.3,29.82,WSW,246,7.0,18.0,20,0.00,,---,0.00,VWS V14.01,2013-03-31 20:32:00,
2013-03-31 14:37:00,59.2,18.2,29.82,WSW,245,7.0,14.0,20,0.00,,---,0.00,VWS V14.01,2013-03-31 20:37:00,
2013-03-31 14:42:00,59.3,19.4,29.81,WSW,255,15.0,15.0,21,0.00,,---,0.00,VWS V14.01,2013-03-31 20:42:00,
2013-03-31 14:47:00,59.2,18.2,29.81,WSW,248,12.0,13.0,20,0.00,,---,0.00,VWS V14.01,2013-03-31 20:47:00,
2013-03-31 14:52:00,59.0,16.8,29.81,WSW,238,6.0,6.0,19,0.00,,---,0.00,VWS V14.01,2013-03-31 20:52:00,
2013-03-31 14:57:00,59.0,18.0,29.81,WSW,241,7.0,11.0,20,0.00,,---,0.00,VWS V14.01,2013-03-31 20:57:00,
2013-03-31 15:02:00,59.0,16.8,29.80,WSW,241,9.0,9.0,19,0.00,,---,0.00,VWS V14.01,2013-03-31 21:02:00,
2013-03-31 15:07:00,60.0,17.6,29.80,WSW,240,9.0,12.0,19,0.00,,---,0.00,VWS V14.01,2013-03-31 21:07:00,
2013-03-31 15:12:00,59.7,16.1,29.80,WSW,257,6.0,11.0,18,0.00,,---,0.00,VWS V14.01,2013-03-31 21:12:00,
2013-03-31 15:17:00,60.5,15.5,29.80,West,264,10.0,11.0,17,0.00,,---,0.00,VWS V14.01,2013-03-31 21:17:00,
2013-03-31 15:22:00,60.3,15.3,29.80,NW,319,6.0,11.0,17,0.00,,---,0.00,VWS V14.01,2013-03-31 21:22:00,
2013-03-31 15:27:00,59.9,16.3,29.80,SW,226,4.0,7.0,18,0.00,,---,0.00,VWS V14.01,2013-03-31 21:27:00,
2013-03-31 15:32:00,60.0,17.6,29.79,WSW,250,7.0,8.0,19,0.00,,---,0.00,VWS V14.01,2013-03-31 21:32:00,
2013-03-31 15:37:00,59.8,17.5,29.80,WSW,249,9.0,9.0,19,0.00,,---,0.00,VWS V14.01,2013-03-31 21:37:00,
2013-03-31 15:42:00,60.0,18.8,29.79,WSW,254,14.0,14.0,20,0.00,,---,0.00,VWS V14.01,2013-03-31 21:42:00,
2013-03-31 15:47:00,60.0,16.4,29.79,West,275,6.0,7.0,18,0.00,,---,0.00,VWS V14.01,2013-03-31 21:47:00,
2013-03-31 15:52:00,60.1,17.7,29.79,West,276,5.0,6.0,19,0.00,,---,0.00,VWS V14.01,2013-03-31 21:52:00,
2013-03-31 15:57:00,60.5,18.1,29.79,West,259,11.0,13.0,19,0.00,,---,0.00,VWS V14.01,2013-03-31 21:57:00,
2013-03-31 16:02:00,60.6,19.3,29.79,West,260,9.0,10.0,20,0.00,,---,0.00,VWS V14.01,2013-03-31 22:02:00,
2013-03-31 16:07:00,60.3,16.6,29.80,West,261,1.0,3.0,18,0.00,,---,0.00,VWS V14.01,2013-03-31 22:07:00,
2013-03-31 16:12:00,60.7,17.0,29.77,NNW,340,23.0,23.0,18,0.00,,---,0.00,VWS V14.01,2013-03-31 22:12:00,
2013-03-31 16:17:00,60.9,18.4,29.78,SW,219,6.0,9.0,19,0.00,,---,0.00,VWS V14.01,2013-03-31 22:17:00,
2013-03-31 16:22:00,60.3,17.9,29.80,SW,229,7.0,7.0,19,0.00,,---,0.00,VWS V14.01,2013-03-31 22:22:00,
2013-03-31 16:27:00,60.6,14.2,29.78,West,276,5.0,8.0,16,0.00,,---,0.00,VWS V14.01,2013-03-31 22:27:00,
2013-03-31 16:32:00,60.8,11.3,29.78,NW,313,12.0,13.0,14,0.00,,---,0.00,VWS V14.01,2013-03-31 22:32:00,
2013-03-31 16:37:00,60.4,11.0,29.80,WNW,302,8.0,8.0,14,0.00,,---,0.00,VWS V14.01,2013-03-31 22:37:00,
2013-03-31 16:42:00,60.7,14.3,29.78,West,259,9.0,14.0,16,0.00,,---,0.00,VWS V14.01,2013-03-31 22:42:00,
2013-03-31 16:47:00,61.3,11.7,29.78,West,268,11.0,15.0,14,0.00,,---,0.00,VWS V14.01,2013-03-31 22:47:00,
2013-03-31 16:52:00,61.1,13.1,29.78,West,259,9.0,9.0,15,0.00,,---,0.00,VWS V14.01,2013-03-31 22:52:00,
2013-03-31 16:57:00,61.6,13.5,29.78,WNW,284,9.0,11.0,15,0.00,,---,0.00,VWS V14.01,2013-03-31 22:57:00,
2013-03-31 17:02:00,60.4,11.0,29.78,NW,313,7.0,8.0,14,0.00,,---,0.00,VWS V14.01,2013-03-31 23:02:00,
2013-03-31 17:07:00,60.9,11.4,29.79,WNW,302,5.0,8.0,14,0.00,,---,0.00,VWS V14.01,2013-03-31 23:07:00,
2013-03-31 17:12:00,60.8,9.7,29.80,West,265,10.0,11.0,13,0.00,,---,0.00,VWS V14.01,2013-03-31 23:12:00,
2013-03-31 17:17:00,60.7,12.8,29.79,West,279,10.0,14.0,15,0.00,,---,0.00,VWS V14.01,2013-03-31 23:17:00,
2013-03-31 17:22:00,60.6,11.2,29.80,NW,309,7.0,15.0,14,0.00,,---,0.00,VWS V14.01,2013-03-31 23:22:00,
2013-03-31 17:27:00,60.3,9.3,29.81,West,277,4.0,11.0,13,0.00,,---,0.00,VWS V14.01,2013-03-31 23:27:00,
2013-03-31 17:32:00,60.5,11.1,29.80,WSW,242,9.0,9.0,14,0.00,,---,0.00,VWS V14.01,2013-03-31 23:32:00,
2013-03-31 17:37:00,60.7,9.6,29.80,West,260,13.0,13.0,13,0.00,,---,0.00,VWS V14.01,2013-03-31 23:37:00,
2013-03-31 17:42:00,60.5,9.4,29.80,West,261,7.0,10.0,13,0.00,,---,0.00,VWS V14.01,2013-03-31 23:42:00,
2013-03-31 17:47:00,60.4,12.6,29.81,WSW,257,10.0,11.0,15,0.00,,---,0.00,VWS V14.01,2013-03-31 23:47:00,
2013-03-31 17:52:00,60.1,9.1,29.81,West,270,5.0,7.0,13,0.00,,---,0.00,VWS V14.01,2013-03-31 23:52:00,
2013-03-31 17:57:00,59.9,9.0,29.81,WSW,257,8.0,11.0,13,0.00,,---,0.00,VWS V14.01,2013-03-31 23:57:00,
2013-03-31 18:02:00,60.2,10.9,29.81,WNW,283,8.0,9.0,14,0.00,,---,0.00,VWS V14.01,2013-04-01 00:02:00,
2013-03-31 18:07:00,60.1,10.8,29.81,West,263,10.0,11.0,14,0.00,,---,0.00,VWS V14.01,2013-04-01 00:07:00,
2013-03-31 18:12:00,59.8,10.5,29.84,WNW,292,6.0,8.0,14,0.00,,---,0.00,VWS V14.01,2013-04-01 00:12:00,
2013-03-31 18:17:00,59.8,12.1,29.85,West,268,7.0,7.0,15,0.00,,---,0.00,VWS V14.01,2013-04-01 00:17:00,
2013-03-31 18:22:00,59.8,12.1,29.85,West,267,4.0,7.0,15,0.00,,---,0.00,VWS V14.01,2013-04-01 00:22:00,
2013-03-31 18:28:00,59.8,10.5,29.85,West,268,5.0,9.0,14,0.00,,---,0.00,VWS V14.01,2013-04-01 00:28:00,
2013-03-31 18:33:00,59.5,13.3,29.85,West,268,6.0,6.0,16,0.00,,---,0.00,VWS V14.01,2013-04-01 00:33:00,
2013-03-31 18:38:00,59.4,14.6,29.85,West,277,8.0,8.0,17,0.00,,---,0.00,VWS V14.01,2013-04-01 00:38:00,
2013-03-31 18:42:00,58.4,15.1,29.86,WNW,293,8.0,10.0,18,0.00,,---,0.00,VWS V14.01,2013-04-01 00:42:00,
2013-03-31 18:47:00,57.6,15.7,29.88,WNW,292,4.0,8.0,19,0.00,,---,0.00,VWS V14.01,2013-04-01 00:47:00,
2013-03-31 18:52:00,57.1,15.2,29.88,WNW,293,6.0,7.0,19,0.00,,---,0.00,VWS V14.01,2013-04-01 00:52:00,
2013-03-31 18:58:00,56.2,15.7,29.89,WNW,294,5.0,8.0,20,0.00,,---,0.00,VWS V14.01,2013-04-01 00:58:00,
2013-03-31 19:03:00,55.3,16.0,29.89,WNW,294,2.0,7.0,21,0.00,,---,0.00,VWS V14.01,2013-04-01 01:03:00,
2013-03-31 19:08:00,54.4,15.3,29.89,WNW,294,7.0,8.0,21,0.00,,---,0.00,VWS V14.01,2013-04-01 01:08:00,
2013-03-31 19:13:00,53.4,15.5,29.86,WNW,293,4.0,6.0,22,0.00,,---,0.00,VWS V14.01,2013-04-01 01:13:00,
2013-03-31 19:18:00,52.5,15.8,29.88,WNW,292,3.0,3.0,23,0.00,,---,0.00,VWS V14.01,2013-04-01 01:18:00,
2013-03-31 19:23:00,51.3,17.6,29.89,WNW,293,3.0,4.0,26,0.00,,---,0.00,VWS V14.01,2013-04-01 01:23:00,
2013-03-31 19:28:00,49.5,16.0,29.89,WNW,292,0.0,2.0,26,0.00,,---,0.00,VWS V14.01,2013-04-01 01:28:00,
2013-03-31 19:33:00,48.4,15.1,29.91,WNW,293,0.0,0.0,26,0.00,,---,0.00,VWS V14.01,2013-04-01 01:33:00,
2013-03-31 19:38:00,47.8,14.6,29.91,WNW,293,0.0,1.0,26,0.00,,---,0.00,VWS V14.01,2013-04-01 01:38:00,
2013-03-31 19:43:00,47.4,14.2,29.93,WNW,293,2.0,5.0,26,0.00,,---,0.00,VWS V14.01,2013-04-01 01:43:00,
2013-03-31 19:48:00,47.0,14.8,29.93,WNW,293,0.0,1.0,27,0.00,,---,0.00,VWS V14.01,2013-04-01 01:48:00,
2013-03-31 19:53:00,46.8,13.7,29.93,West,271,3.0,8.0,26,0.00,,---,0.00,VWS V14.01,2013-04-01 01:53:00,
2013-03-31 19:58:00,46.9,14.7,29.93,West,271,1.0,1.0,27,0.00,,---,0.00,VWS V14.01,2013-04-01 01:58:00,
2013-03-31 20:03:00,46.1,14.8,29.93,West,271,0.0,4.0,28,0.00,,---,0.00,VWS V14.01,2013-04-01 02:03:00,
2013-03-31 20:08:00,45.4,14.2,29.92,West,271,0.0,0.0,28,0.00,,---,0.00,VWS V14.01,2013-04-01 02:08:00,
2013-03-31 20:13:00,45.0,13.9,29.92,West,271,0.0,1.0,28,0.00,,---,0.00,VWS V14.01,2013-04-01 02:13:00,
2013-03-31 20:18:00,45.0,14.7,29.92,West,271,0.0,1.0,29,0.00,,---,0.00,VWS V14.01,2013-04-01 02:18:00,
2013-03-31 20:23:00,45.0,13.9,29.92,West,271,0.0,1.0,28,0.00,,---,0.00,VWS V14.01,2013-04-01 02:23:00,
2013-03-31 20:28:00,45.0,13.9,29.92,West,271,0.0,1.0,28,0.00,,---,0.00,VWS V14.01,2013-04-01 02:28:00,
2013-03-31 20:33:00,45.0,13.9,29.92,West,271,0.0,0.0,28,0.00,,---,0.00,VWS V14.01,2013-04-01 02:33:00,
2013-03-31 20:38:00,45.0,13.9,29.93,West,271,0.0,0.0,28,0.00,,---,0.00,VWS V14.01,2013-04-01 02:38:00,
2013-03-31 20:43:00,45.2,14.1,29.93,West,271,0.0,0.0,28,0.00,,---,0.00,VWS V14.01,2013-04-01 02:43:00,
2013-03-31 20:48:00,45.2,14.1,29.93,West,271,0.0,0.0,28,0.00,,---,0.00,VWS V14.01,2013-04-01 02:48:00,
2013-03-31 20:53:00,44.1,15.4,29.93,West,271,1.0,1.0,31,0.00,,---,0.00,VWS V14.01,2013-04-01 02:53:00,
2013-03-31 20:58:00,43.3,14.0,29.95,West,271,0.0,2.0,30,0.00,,---,0.00,VWS V14.01,2013-04-01 02:58:00,
2013-03-31 21:03:00,43.4,14.1,29.95,West,271,0.0,0.0,30,0.00,,---,0.00,VWS V14.01,2013-04-01 03:03:00,
2013-03-31 21:08:00,44.0,13.8,29.89,West,271,0.0,2.0,29,0.00,,---,0.00,VWS V14.01,2013-04-01 03:08:00,
2013-03-31 21:13:00,44.2,14.0,29.89,West,271,2.0,3.0,29,0.00,,---,0.00,VWS V14.01,2013-04-01 03:13:00,
2013-03-31 21:18:00,44.3,14.1,29.89,West,271,0.0,0.0,29,0.00,,---,0.00,VWS V14.01,2013-04-01 03:18:00,
2013-03-31 21:23:00,44.3,14.1,29.89,West,271,0.0,1.0,29,0.00,,---,0.00,VWS V14.01,2013-04-01 03:23:00,
2013-03-31 21:28:00,45.5,14.3,29.89,West,271,2.0,4.0,28,0.00,,---,0.00,VWS V14.01,2013-04-01 03:28:00,
2013-03-31 21:33:00,46.4,15.1,29.88,West,271,0.0,1.0,28,0.00,,---,0.00,VWS V14.01,2013-04-01 03:33:00,
2013-03-31 21:38:00,46.4,15.1,29.88,West,271,0.0,0.0,28,0.00,,---,0.00,VWS V14.01,2013-04-01 03:38:00,
2013-03-31 21:43:00,45.5,16.6,29.88,West,271,2.0,6.0,31,0.00,,---,0.00,VWS V14.01,2013-04-01 03:43:00,
2013-03-31 21:48:00,43.1,16.7,29.92,West,271,0.0,2.0,34,0.00,,---,0.00,VWS V14.01,2013-04-01 03:48:00,
2013-03-31 21:53:00,41.6,16.0,29.92,West,271,4.0,4.0,35,0.00,,---,0.00,VWS V14.01,2013-04-01 03:53:00,
2013-03-31 21:58:00,40.8,15.9,29.94,West,271,0.0,1.0,36,0.00,,---,0.00,VWS V14.01,2013-04-01 03:58:00,
2013-03-31 22:00:00,40.8,15.9,29.94,West,271,0.0,2.0,36,0.00,,---,0.00,VWS V14.01,2013-04-01 04:00:00,
2013-03-31 22:01:00,40.8,15.9,29.94,West,271,0.0,2.0,36,0.00,,---,0.00,VWS V14.01,2013-04-01 04:01:00,
2013-03-31 22:06:00,41.1,15.6,29.94,West,271,4.0,5.0,35,0.00,,---,0.00,VWS V14.01,2013-04-01 04:06:00,
2013-03-31 22:11:00,41.9,15.6,29.88,West,271,0.0,0.0,34,0.00,,---,0.00,VWS V14.01,2013-04-01 04:11:00,
2013-03-31 22:16:00,42.4,15.4,29.88,West,271,0.0,0.0,33,0.00,,---,0.00,VWS V14.01,2013-04-01 04:16:00,
2013-03-31 22:17:00,42.5,15.4,29.88,West,271,0.0,0.0,33,0.00,,---,0.00,VWS V14.01,2013-04-01 04:17:00,
2013-03-31 22:22:00,42.9,16.5,29.88,West,271,0.0,0.0,34,0.00,,---,0.00,VWS V14.01,2013-04-01 04:22:00,
2013-03-31 22:27:00,42.9,16.5,29.88,West,271,0.0,0.0,34,0.00,,---,0.00,VWS V14.01,2013-04-01 04:27:00,
2013-03-31 22:32:00,42.8,17.7,29.88,West,271,0.0,0.0,36,0.00,,---,0.00,VWS V14.01,2013-04-01 04:32:00,
2013-03-31 22:37:00,42.5,17.4,29.88,West,271,0.0,0.0,36,0.00,,---,0.00,VWS V14.01,2013-04-01 04:37:00,
2013-03-31 22:42:00,42.3,16.6,29.88,West,271,0.0,0.0,35,0.00,,---,0.00,VWS V14.01,2013-04-01 04:42:00,
2013-03-31 22:47:00,42.3,17.3,29.88,West,271,0.0,0.0,36,0.00,,---,0.00,VWS V14.01,2013-04-01 04:47:00,
2013-03-31 22:52:00,42.2,17.2,29.88,West,271,0.0,0.0,36,0.00,,---,0.00,VWS V14.01,2013-04-01 04:52:00,
2013-03-31 22:57:00,42.2,16.5,29.88,West,271,0.0,0.0,35,0.00,,---,0.00,VWS V14.01,2013-04-01 04:57:00,
2013-03-31 23:02:00,42.3,17.3,29.88,West,271,0.0,0.0,36,0.00,,---,0.00,VWS V14.01,2013-04-01 05:02:00,
2013-03-31 23:07:00,42.3,17.9,29.88,West,271,0.0,0.0,37,0.00,,---,0.00,VWS V14.01,2013-04-01 05:07:00,
2013-03-31 23:12:00,42.1,18.3,29.84,West,271,0.0,0.0,38,0.00,,---,0.00,VWS V14.01,2013-04-01 05:12:00,
2013-03-31 23:17:00,41.9,17.5,29.84,West,271,0.0,0.0,37,0.00,,---,0.00,VWS V14.01,2013-04-01 05:17:00,
2013-03-31 23:22:00,41.7,18.0,29.84,West,271,0.0,0.0,38,0.00,,---,0.00,VWS V14.01,2013-04-01 05:22:00,
2013-03-31 23:27:00,41.5,17.8,29.84,West,271,0.0,0.0,38,0.00,,---,0.00,VWS V14.01,2013-04-01 05:27:00,